AIC2BB VABB-VIDP

Flight info

Callsign AIC2BB
Flight time 1h 50m
Altitude 39000
Route ANOLI2A ISRIS Q1 UKASO UKASO6G
Aircraft A20N/M-SDE2E3FGHIRWXY/LB1

Departure

Time 2026-05-05 14:07
Airport Chhatrapati Shivaji Maharaj International Airport (VABB)

Arrival

Time 2026-05-05 15:57
Airport Indira Gandhi International Airport (VIDP)
Time Latitude Longitude Altitude Speed Heading
2026-05-05 14:07 19.08815 72.82024 1925 ft 162 kts 269°
2026-05-05 14:07 19.08808 72.81580 2098 ft 170 kts 269°
2026-05-05 14:07 19.08788 72.80280 2638 ft 189 kts 269°
2026-05-05 14:08 19.08764 72.78823 3163 ft 208 kts 269°
2026-05-05 14:08 19.08738 72.77218 3603 ft 230 kts 269°
2026-05-05 14:08 19.08709 72.75478 4265 ft 240 kts 269°
2026-05-05 14:08 19.08783 72.73688 4932 ft 252 kts 282°
2026-05-05 14:09 19.09600 72.71984 5424 ft 271 kts 311°
2026-05-05 14:09 19.11165 72.70842 6239 ft 280 kts 338°
2026-05-05 14:09 19.13099 72.70554 7072 ft 287 kts
2026-05-05 14:09 19.14993 72.71195 7914 ft 292 kts 30°
2026-05-05 14:10 19.16686 72.72432 8769 ft 296 kts 33°
2026-05-05 14:10 19.18490 72.73495 9463 ft 299 kts 21°
2026-05-05 14:10 19.20460 72.74100 9737 ft 299 kts
2026-05-05 14:10 19.22525 72.74313 9839 ft 299 kts
2026-05-05 14:11 19.24604 72.74299 9852 ft 298 kts 357°
2026-05-05 14:11 19.26684 72.74188 9852 ft 304 kts 355°
2026-05-05 14:11 19.28890 72.74044 9853 ft 334 kts 357°
2026-05-05 14:11 19.31264 72.74133 10297 ft 347 kts
2026-05-05 14:12 19.33666 72.74503 11069 ft 349 kts
2026-05-05 14:12 19.36084 72.74872 11823 ft 353 kts
2026-05-05 14:12 19.38485 72.75488 12548 ft 358 kts 15°
2026-05-05 14:12 19.40885 72.76251 13287 ft 362 kts 15°
2026-05-05 14:13 19.43283 72.77024 13972 ft 366 kts 15°
2026-05-05 14:13 19.45727 72.77811 14685 ft 368 kts 15°
2026-05-05 14:13 19.48180 72.78599 15403 ft 370 kts 15°
2026-05-05 14:13 19.50654 72.79390 16064 ft 373 kts 15°
2026-05-05 14:14 19.53146 72.80185 16732 ft 376 kts 15°
2026-05-05 14:14 19.55655 72.80986 17395 ft 378 kts 15°
2026-05-05 14:14 19.58188 72.81794 18032 ft 382 kts 15°
2026-05-05 14:14 19.60739 72.82607 18594 ft 384 kts 15°
2026-05-05 14:15 19.63313 72.83429 19155 ft 387 kts 15°
2026-05-05 14:15 19.65860 72.84242 19712 ft 389 kts 15°
2026-05-05 14:15 19.68459 72.85073 20272 ft 391 kts 15°
2026-05-05 14:15 19.71072 72.85908 20796 ft 394 kts 15°
2026-05-05 14:16 19.73708 72.86750 21335 ft 396 kts 14°
2026-05-05 14:16 19.76354 72.87596 21864 ft 398 kts 14°
2026-05-05 14:16 19.79017 72.88447 22365 ft 401 kts 14°
2026-05-05 14:16 19.81693 72.89303 22875 ft 403 kts 14°
2026-05-05 14:17 19.84387 72.90166 23365 ft 406 kts 14°
2026-05-05 14:17 19.87093 72.91033 23770 ft 408 kts 14°
2026-05-05 14:17 19.89794 72.91898 24111 ft 412 kts 14°
2026-05-05 14:17 19.92550 72.92781 24458 ft 416 kts 14°
2026-05-05 14:18 19.95329 72.93671 24804 ft 419 kts 14°
2026-05-05 14:18 19.98131 72.94570 25165 ft 422 kts 14°
2026-05-05 14:18 20.00946 72.95474 25498 ft 425 kts 14°
2026-05-05 14:18 20.03783 72.96384 25834 ft 428 kts 14°
2026-05-05 14:19 20.06650 72.97305 26166 ft 431 kts 14°
2026-05-05 14:19 20.09533 72.98231 26492 ft 434 kts 14°
2026-05-05 14:19 20.12437 72.99165 26799 ft 437 kts 14°
2026-05-05 14:19 20.15320 73.00092 27107 ft 440 kts 14°
2026-05-05 14:20 20.18259 73.01038 27417 ft 443 kts 14°
2026-05-05 14:20 20.21216 73.01989 27716 ft 446 kts 14°
2026-05-05 14:20 20.24196 73.02949 28010 ft 448 kts 14°
2026-05-05 14:20 20.27189 73.03912 28299 ft 451 kts 14°
2026-05-05 14:21 20.30202 73.04883 28590 ft 454 kts 14°
2026-05-05 14:21 20.33234 73.05860 28870 ft 456 kts 14°
2026-05-05 14:21 20.36277 73.06841 29143 ft 459 kts 14°
2026-05-05 14:21 20.39340 73.07829 29406 ft 461 kts 14°
2026-05-05 14:22 20.42381 73.08810 29685 ft 463 kts 14°
2026-05-05 14:22 20.45473 73.09808 29941 ft 466 kts 14°
2026-05-05 14:22 20.48578 73.10811 30203 ft 467 kts 14°
2026-05-05 14:22 20.51697 73.11819 30465 ft 469 kts 14°
2026-05-05 14:23 20.54824 73.12829 30720 ft 471 kts 14°
2026-05-05 14:23 20.57960 73.13843 31002 ft 472 kts 14°
2026-05-05 14:23 20.61102 73.14860 31343 ft 471 kts 14°
2026-05-05 14:23 20.64234 73.15874 31697 ft 470 kts 14°
2026-05-05 14:24 20.67360 73.16887 32050 ft 469 kts 14°
2026-05-05 14:24 20.70441 73.17885 32390 ft 469 kts 13°
2026-05-05 14:24 20.73556 73.18894 32737 ft 468 kts 13°
2026-05-05 14:24 20.76669 73.19903 33062 ft 467 kts 13°
2026-05-05 14:25 20.79774 73.20910 33390 ft 466 kts 13°
2026-05-05 14:25 20.82879 73.21918 33710 ft 465 kts 13°
2026-05-05 14:25 20.85975 73.22923 33993 ft 465 kts 13°
2026-05-05 14:25 20.89067 73.23927 34276 ft 464 kts 13°
2026-05-05 14:26 20.92146 73.24927 34550 ft 463 kts 13°
2026-05-05 14:26 20.95182 73.25914 34804 ft 462 kts 13°
2026-05-05 14:26 20.98251 73.26912 35073 ft 461 kts 13°
2026-05-05 14:26 21.01317 73.27909 35325 ft 460 kts 13°
2026-05-05 14:27 21.04378 73.28905 35583 ft 459 kts 13°
2026-05-05 14:27 21.07433 73.29900 35842 ft 458 kts 13°
2026-05-05 14:27 21.10483 73.30893 36105 ft 458 kts 13°
2026-05-05 14:27 21.13526 73.31884 36365 ft 457 kts 13°
2026-05-05 14:28 21.16566 73.32875 36620 ft 456 kts 13°
2026-05-05 14:28 21.19558 73.33851 36865 ft 456 kts 13°
2026-05-05 14:28 21.22587 73.34840 37121 ft 455 kts 13°
2026-05-05 14:28 21.25612 73.35827 37363 ft 454 kts 13°
2026-05-05 14:29 21.28632 73.36813 37590 ft 453 kts 13°
2026-05-05 14:29 21.31650 73.37799 37825 ft 453 kts 13°
2026-05-05 14:29 21.34661 73.38783 38043 ft 452 kts 13°
2026-05-05 14:29 21.37668 73.39767 38248 ft 452 kts 13°
2026-05-05 14:30 21.40674 73.40750 38441 ft 451 kts 13°
2026-05-05 14:30 21.43638 73.41720 38631 ft 451 kts 13°
2026-05-05 14:30 21.46638 73.42702 38780 ft 451 kts 13°
2026-05-05 14:30 21.49645 73.43687 38816 ft 454 kts 13°
2026-05-05 14:31 21.55731 73.45680 38818 ft 461 kts 13°
2026-05-05 14:31 21.61913 73.47708 38819 ft 467 kts 13°
2026-05-05 14:32 21.68086 73.49736 38814 ft 467 kts 13°
2026-05-05 14:32 21.74294 73.51778 38814 ft 467 kts 13°
2026-05-05 14:33 21.80508 73.53822 38813 ft 467 kts 13°
2026-05-05 14:33 21.86721 73.55868 38812 ft 467 kts 13°
2026-05-05 14:34 21.92892 73.57902 38810 ft 467 kts 13°
2026-05-05 14:34 21.99103 73.59950 38807 ft 467 kts 13°
2026-05-05 14:35 22.05319 73.62003 38803 ft 467 kts 13°
2026-05-05 14:35 22.11529 73.64055 38802 ft 467 kts 13°
2026-05-05 14:36 22.17741 73.66110 38800 ft 467 kts 13°
2026-05-05 14:36 22.23906 73.68151 38799 ft 466 kts 13°
2026-05-05 14:37 22.30109 73.70207 38803 ft 466 kts 13°
2026-05-05 14:37 22.36314 73.72265 38803 ft 467 kts 13°
2026-05-05 14:38 22.42558 73.74337 38807 ft 471 kts 13°
2026-05-05 14:38 22.48790 73.76408 38805 ft 472 kts 13°
2026-05-05 14:39 22.55067 73.78497 38804 ft 472 kts 12°
2026-05-05 14:39 22.61335 73.80584 38804 ft 472 kts 12°
2026-05-05 14:40 22.67610 73.82676 38809 ft 472 kts 12°
2026-05-05 14:40 22.73881 73.84769 38809 ft 471 kts 12°
2026-05-05 14:41 22.80107 73.86848 38813 ft 471 kts 12°
2026-05-05 14:41 22.86369 73.88941 38812 ft 471 kts 12°
2026-05-05 14:42 22.92632 73.91037 38820 ft 471 kts 12°
2026-05-05 14:42 22.98888 73.93133 38822 ft 470 kts 12°
2026-05-05 14:43 23.05100 73.95216 38820 ft 470 kts 12°
2026-05-05 14:43 23.11358 73.97315 38826 ft 470 kts 12°
2026-05-05 14:44 23.17605 73.99414 38827 ft 470 kts 11°
2026-05-05 14:44 23.23857 74.01516 38837 ft 470 kts 11°
2026-05-05 14:45 23.30075 74.03608 38836 ft 471 kts 11°
2026-05-05 14:45 23.36329 74.05715 38840 ft 471 kts 11°
2026-05-05 14:46 23.41996 74.07626 38850 ft 471 kts 11°
2026-05-05 14:46 23.48259 74.09739 38849 ft 471 kts 11°
2026-05-05 14:47 23.54522 74.11855 38861 ft 471 kts 11°
2026-05-05 14:47 23.60740 74.13958 38869 ft 471 kts 11°
2026-05-05 14:48 23.67006 74.16079 38871 ft 472 kts 11°
2026-05-05 14:48 23.73275 74.18203 38877 ft 472 kts 11°
2026-05-05 14:49 23.79548 74.20331 38885 ft 472 kts 11°
2026-05-05 14:49 23.85774 74.22445 38893 ft 472 kts 11°
2026-05-05 14:50 23.92042 74.24575 38903 ft 472 kts 11°
2026-05-05 14:50 23.98312 74.26708 38908 ft 472 kts 11°
2026-05-05 14:51 24.04586 74.28845 38911 ft 472 kts 10°
2026-05-05 14:51 24.10827 74.30973 38924 ft 473 kts 10°
2026-05-05 14:52 24.17099 74.33113 38935 ft 472 kts 10°
2026-05-05 14:52 24.23377 74.35258 38965 ft 473 kts 10°
2026-05-05 14:53 24.29655 74.37404 38964 ft 473 kts 10°
2026-05-05 14:53 24.35890 74.39539 38967 ft 473 kts 10°
2026-05-05 14:54 24.42173 74.41691 38971 ft 473 kts 10°
2026-05-05 14:54 24.48449 74.43845 38969 ft 473 kts 10°
2026-05-05 14:55 24.54726 74.46000 38971 ft 473 kts 10°
2026-05-05 14:55 24.61006 74.48159 38971 ft 473 kts 10°
2026-05-05 14:56 24.67246 74.50306 38970 ft 473 kts 10°
2026-05-05 14:56 24.73525 74.52469 38970 ft 473 kts 10°
2026-05-05 14:57 24.79806 74.54635 38968 ft 473 kts 10°
2026-05-05 14:57 24.86084 74.56802 38967 ft 473 kts 10°
2026-05-05 14:58 24.92319 74.58956 38963 ft 473 kts 10°
2026-05-05 14:58 24.98595 74.61126 38960 ft 473 kts 10°
2026-05-05 14:59 25.04572 74.63196 38963 ft 473 kts 10°
2026-05-05 14:59 25.10777 74.65344 38962 ft 473 kts 10°
2026-05-05 15:00 25.15998 74.67154 38964 ft 473 kts 10°
2026-05-05 15:00 25.23294 74.69688 38953 ft 473 kts 10°
2026-05-05 15:01 25.29582 74.71875 38947 ft 474 kts 10°
2026-05-05 15:01 25.35872 74.74065 38942 ft 474 kts 10°
2026-05-05 15:02 25.42166 74.76259 38945 ft 474 kts 10°
2026-05-05 15:02 25.48418 74.78440 38938 ft 475 kts 10°
2026-05-05 15:03 25.54719 74.80642 38937 ft 475 kts
2026-05-05 15:03 25.61024 74.82847 38932 ft 475 kts
2026-05-05 15:04 25.67332 74.85055 38930 ft 476 kts 10°
2026-05-05 15:04 25.73646 74.87268 38922 ft 476 kts
2026-05-05 15:05 25.83081 74.90580 38920 ft 476 kts
2026-05-05 15:06 25.89400 74.92801 38918 ft 476 kts
2026-05-05 15:06 25.95723 74.95026 38912 ft 477 kts
2026-05-05 15:07 26.02001 74.97237 38907 ft 477 kts
2026-05-05 15:07 26.08333 74.99470 38904 ft 477 kts
2026-05-05 15:08 26.14670 75.01707 38904 ft 478 kts
2026-05-05 15:08 26.21002 75.03946 38903 ft 478 kts
2026-05-05 15:09 26.27335 75.06187 38898 ft 478 kts
2026-05-05 15:09 26.33636 75.08419 38896 ft 478 kts
2026-05-05 15:10 26.39976 75.10668 38893 ft 478 kts
2026-05-05 15:10 26.46318 75.12920 38889 ft 478 kts
2026-05-05 15:11 26.52659 75.15174 38892 ft 478 kts
2026-05-05 15:11 26.58959 75.17416 38887 ft 478 kts
2026-05-05 15:12 26.65294 75.19673 38888 ft 478 kts
2026-05-05 15:12 26.71626 75.21931 38887 ft 478 kts
2026-05-05 15:13 26.77970 75.24197 38882 ft 478 kts
2026-05-05 15:13 26.84263 75.26447 38884 ft 478 kts
2026-05-05 15:14 26.90601 75.28715 38885 ft 478 kts
2026-05-05 15:14 26.96931 75.30983 38890 ft 478 kts
2026-05-05 15:15 27.03263 75.33254 38894 ft 478 kts
2026-05-05 15:15 27.09468 75.35493 38884 ft 454 kts
2026-05-05 15:16 27.15372 75.37616 38885 ft 450 kts
2026-05-05 15:16 27.21269 75.40294 38843 ft 469 kts 23°
2026-05-05 15:16 27.23969 75.42427 38634 ft 480 kts 33°
2026-05-05 15:17 27.26405 75.45027 38202 ft 486 kts 37°
2026-05-05 15:17 27.28812 75.47700 37549 ft 487 kts 37°
2026-05-05 15:17 27.31232 75.50377 36714 ft 488 kts 37°
2026-05-05 15:17 27.33631 75.53025 35562 ft 492 kts 38°
2026-05-05 15:18 27.36066 75.55714 34751 ft 487 kts 38°
2026-05-05 15:18 27.38477 75.58381 33890 ft 484 kts 38°
2026-05-05 15:18 27.40864 75.61022 32959 ft 480 kts 38°
2026-05-05 15:18 27.43225 75.63634 32172 ft 472 kts 38°
2026-05-05 15:19 27.45557 75.66211 31329 ft 467 kts 39°
2026-05-05 15:19 27.47846 75.68745 30741 ft 456 kts 39°
2026-05-05 15:19 27.50087 75.71226 30140 ft 446 kts 39°
2026-05-05 15:19 27.52247 75.73620 29465 ft 437 kts 40°
2026-05-05 15:20 27.54393 75.75999 28914 ft 433 kts 40°
2026-05-05 15:20 27.56589 75.78423 28316 ft 450 kts 40°
2026-05-05 15:20 27.58837 75.80910 27697 ft 453 kts 40°
2026-05-05 15:20 27.61078 75.83378 27084 ft 446 kts 38°
2026-05-05 15:21 27.63494 75.85475 26476 ft 432 kts 28°
2026-05-05 15:21 27.66096 75.87041 25885 ft 416 kts 19°
2026-05-05 15:21 27.68782 75.88096 25322 ft 402 kts 12°
2026-05-05 15:21 27.71401 75.88962 24749 ft 393 kts 13°
2026-05-05 15:22 27.73991 75.89834 24234 ft 386 kts 13°
2026-05-05 15:22 27.76612 75.90716 23727 ft 404 kts 13°
2026-05-05 15:22 27.79323 75.91627 23490 ft 408 kts 14°
2026-05-05 15:22 27.82045 75.92546 22827 ft 409 kts 14°
2026-05-05 15:23 27.84777 75.93469 21805 ft 412 kts 14°
2026-05-05 15:23 27.87498 75.94390 21138 ft 402 kts 14°
2026-05-05 15:23 27.90123 75.95281 20730 ft 386 kts 14°
2026-05-05 15:23 27.92660 75.96141 20202 ft 376 kts 14°
2026-05-05 15:24 27.95097 75.96967 19674 ft 365 kts 13°
2026-05-05 15:24 27.97497 75.97780 19117 ft 356 kts 13°
2026-05-05 15:24 27.99844 75.98574 18626 ft 347 kts 13°
2026-05-05 15:24 28.02172 75.99361 18104 ft 359 kts 13°
2026-05-05 15:25 28.04646 76.00192 17535 ft 378 kts 13°
2026-05-05 15:25 28.07168 76.01045 17123 ft 375 kts 13°
2026-05-05 15:25 28.09610 76.01879 16983 ft 358 kts 13°
2026-05-05 15:25 28.11934 76.02675 16809 ft 339 kts 13°
2026-05-05 15:26 28.14098 76.03415 16641 ft 320 kts 13°
2026-05-05 15:26 28.16164 76.04121 16479 ft 301 kts 13°
2026-05-05 15:26 28.18124 76.04789 16170 ft 289 kts 13°
2026-05-05 15:26 28.20034 76.05436 15734 ft 282 kts 12°
2026-05-05 15:27 28.21808 76.06207 15644 ft 267 kts 27°
2026-05-05 15:27 28.23171 76.07559 15538 ft 260 kts 47°
2026-05-05 15:27 28.24100 76.09405 15457 ft 276 kts 58°
2026-05-05 15:27 28.24954 76.11348 15384 ft 273 kts 58°
2026-05-05 15:28 28.25796 76.13253 15029 ft 275 kts 58°
2026-05-05 15:28 28.26668 76.15217 14488 ft 281 kts 58°
2026-05-05 15:28 28.27549 76.17202 14064 ft 281 kts 58°
2026-05-05 15:28 28.28415 76.19163 13824 ft 272 kts 58°
2026-05-05 15:29 28.29248 76.21055 13488 ft 266 kts 57°
2026-05-05 15:29 28.30073 76.22920 13178 ft 264 kts 57°
2026-05-05 15:29 28.30906 76.24794 12793 ft 267 kts 57°
2026-05-05 15:29 28.31740 76.26674 12399 ft 266 kts 58°
2026-05-05 15:30 28.32577 76.28563 12007 ft 277 kts 58°
2026-05-05 15:30 28.33468 76.30561 11584 ft 286 kts 58°
2026-05-05 15:30 28.34342 76.32541 11182 ft 282 kts 58°
2026-05-05 15:30 28.35217 76.34530 10765 ft 281 kts 59°
2026-05-05 15:31 28.36089 76.36510 10347 ft 280 kts 59°
2026-05-05 15:31 28.36959 76.38485 9936 ft 279 kts 59°
2026-05-05 15:31 28.37824 76.40446 9504 ft 276 kts 59°
2026-05-05 15:31 28.38682 76.42393 9099 ft 275 kts 59°
2026-05-05 15:32 28.39534 76.44324 8698 ft 273 kts 59°
2026-05-05 15:32 28.40380 76.46243 8432 ft 270 kts 60°
2026-05-05 15:32 28.41222 76.48157 8229 ft 271 kts 60°
2026-05-05 15:32 28.42053 76.50046 8068 ft 270 kts 60°
2026-05-05 15:33 28.42894 76.51958 7780 ft 271 kts 60°
2026-05-05 15:33 28.43729 76.53859 7347 ft 266 kts 60°
2026-05-05 15:33 28.44553 76.55735 6911 ft 266 kts 60°
2026-05-05 15:33 28.45376 76.57610 6475 ft 263 kts 61°
2026-05-05 15:34 28.46185 76.59453 6032 ft 260 kts 61°
2026-05-05 15:34 28.46990 76.61288 5600 ft 257 kts 61°
2026-05-05 15:34 28.47781 76.63093 5173 ft 255 kts 62°
2026-05-05 15:34 28.48565 76.64882 4812 ft 250 kts 62°
2026-05-05 15:35 28.49331 76.66632 4463 ft 251 kts 62°
2026-05-05 15:35 28.50101 76.68392 4052 ft 245 kts 62°
2026-05-05 15:35 28.50860 76.70127 3647 ft 247 kts 62°
2026-05-05 15:35 28.51622 76.71867 3251 ft 243 kts 63°
2026-05-05 15:36 28.52425 76.73525 3005 ft 240 kts 56°
2026-05-05 15:36 28.53353 76.75107 2893 ft 238 kts 56°
2026-05-05 15:36 28.54240 76.76633 2713 ft 225 kts 56°
2026-05-05 15:36 28.55076 76.78079 2486 ft 213 kts 56°
2026-05-05 15:37 28.55860 76.79438 2280 ft 204 kts 57°
2026-05-05 15:37 28.56624 76.80767 2063 ft 198 kts 56°
2026-05-05 15:37 28.57358 76.82041 2002 ft 186 kts 56°
2026-05-05 15:37 28.58023 76.83200 2004 ft 166 kts 57°
2026-05-05 15:38 28.58621 76.84243 2000 ft 148 kts 56°
2026-05-05 15:38 28.59196 76.85238 2144 ft 163 kts 56°
2026-05-05 15:38 28.59828 76.86335 2508 ft 166 kts 56°
2026-05-05 15:38 28.60459 76.87431 2614 ft 166 kts 56°
2026-05-05 15:39 28.61049 76.88561 2622 ft 167 kts 71°
2026-05-05 15:39 28.61034 76.89853 2642 ft 166 kts 102°
2026-05-05 15:39 28.60742 76.91109 2632 ft 168 kts 104°
2026-05-05 15:39 28.60439 76.92381 2627 ft 162 kts 104°
2026-05-05 15:40 28.60151 76.93594 2641 ft 158 kts 104°
2026-05-05 15:40 28.59871 76.94789 2640 ft 157 kts 103°
2026-05-05 15:40 28.59595 76.95985 2638 ft 155 kts 103°
2026-05-05 15:40 28.59321 76.97179 2638 ft 156 kts 103°
2026-05-05 15:41 28.59140 76.97971 2646 ft 157 kts 103°
2026-05-05 15:41 28.58596 77.00340 2438 ft 141 kts 103°
2026-05-05 15:41 28.58550 77.00540 2400 ft 140 kts 103°
2026-05-05 15:42 28.58364 77.01349 2241 ft 136 kts 103°
2026-05-05 15:42 28.58127 77.02381 2004 ft 134 kts 103°
2026-05-05 15:42 28.58124 77.02391 2002 ft 134 kts 103°
2026-05-05 15:42 28.58052 77.02704 1937 ft 133 kts 103°
2026-05-05 15:43 28.57820 77.03712 1715 ft 134 kts 102°
2026-05-05 15:43 28.57583 77.04731 1484 ft 131 kts 102°
2026-05-05 15:43 28.57429 77.05403 1294 ft 128 kts 101°
2026-05-05 15:43 28.57280 77.06030 1206 ft 124 kts 100°
2026-05-05 15:44 28.57169 77.06512 1110 ft 133 kts 99°
2026-05-05 15:44 28.57094 77.06839 1055 ft 132 kts 99°
2026-05-05 15:44 28.56875 77.07793 886 ft 123 kts 99°
2026-05-05 15:45 28.56663 77.08781 739 ft 132 kts 101°
2026-05-05 15:45 28.56443 77.09839 844 ft 155 kts 100°
2026-05-05 15:45 28.56186 77.10950 1787 ft 139 kts 102°
2026-05-05 15:45 28.55942 77.11978 2599 ft 131 kts 103°
2026-05-05 15:46 28.55702 77.12982 3134 ft 135 kts 104°
2026-05-05 15:46 28.55445 77.14074 3433 ft 154 kts 104°
2026-05-05 15:46 28.55146 77.15359 3506 ft 181 kts 104°
2026-05-05 15:46 28.54805 77.16833 3497 ft 207 kts 104°
2026-05-05 15:47 28.54433 77.18447 3502 ft 215 kts 104°
2026-05-05 15:47 28.54176 77.19558 3504 ft 215 kts 104°
2026-05-05 15:47 28.53214 77.21526 3499 ft 223 kts 141°
2026-05-05 15:47 28.51805 77.22224 3500 ft 223 kts 175°
2026-05-05 15:48 28.50300 77.21932 3497 ft 223 kts 208°
2026-05-05 15:48 28.49186 77.20744 3499 ft 222 kts 242°
2026-05-05 15:48 28.48867 77.19720 3499 ft 222 kts 263°
2026-05-05 15:49 28.48938 77.18185 3500 ft 222 kts 280°
2026-05-05 15:49 28.49291 77.16483 3500 ft 221 kts 289°
2026-05-05 15:49 28.49807 77.14864 3487 ft 220 kts 290°
2026-05-05 15:49 28.50272 77.13217 3285 ft 219 kts 287°
2026-05-05 15:50 28.50714 77.11548 3000 ft 221 kts 287°
2026-05-05 15:50 28.51151 77.09873 2737 ft 221 kts 287°
2026-05-05 15:50 28.51580 77.08204 2618 ft 220 kts 287°
2026-05-05 15:50 28.52015 77.06525 2602 ft 223 kts 287°
2026-05-05 15:51 28.52450 77.04844 2600 ft 220 kts 287°
2026-05-05 15:51 28.52883 77.03170 2592 ft 220 kts 287°
2026-05-05 15:51 28.53314 77.01513 2604 ft 222 kts 287°
2026-05-05 15:51 28.53751 76.99827 2601 ft 222 kts 288°
2026-05-05 15:52 28.54185 76.98140 2595 ft 222 kts 287°
2026-05-05 15:52 28.54621 76.96454 2595 ft 222 kts 287°
2026-05-05 15:52 28.55053 76.94826 2584 ft 208 kts 293°
2026-05-05 15:52 28.55852 76.93602 2601 ft 182 kts 326°
2026-05-05 15:53 28.56923 76.93090 2596 ft 154 kts 354°
2026-05-05 15:53 28.57896 76.93156 2579 ft 131 kts 17°
2026-05-05 15:53 28.58739 76.93624 2582 ft 135 kts 38°
2026-05-05 15:53 28.59352 76.94412 2551 ft 134 kts 60°
2026-05-05 15:54 28.59644 76.95384 2596 ft 132 kts 82°
2026-05-05 15:54 28.59596 76.96435 2605 ft 134 kts 103°
2026-05-05 15:54 28.59288 76.97439 2606 ft 134 kts 108°
2026-05-05 15:54 28.59005 76.98456 2563 ft 136 kts 103°
2026-05-05 15:55 28.58773 76.99486 2377 ft 132 kts 103°
2026-05-05 15:55 28.58547 77.00493 2162 ft 131 kts 103°
2026-05-05 15:55 28.58315 77.01521 1992 ft 134 kts 103°
2026-05-05 15:55 28.58083 77.02534 1822 ft 132 kts 103°
2026-05-05 15:56 28.57849 77.03550 1630 ft 133 kts 101°
2026-05-05 15:56 28.57618 77.04547 1448 ft 130 kts 102°
2026-05-05 15:56 28.57394 77.05525 1288 ft 127 kts 101°
2026-05-05 15:56 28.57159 77.06539 1095 ft 134 kts 99°
2026-05-05 15:57 28.56931 77.07534 853 ft 126 kts 100°
2026-05-05 15:57 28.56724 77.08475 771 ft 124 kts 99°
2026-05-05 15:57 28.56524 77.09370 742 ft 94 kts 103°
2026-05-05 15:57 28.56408 77.09860 747 ft 37 kts 104°
2026-05-05 15:58 28.56344 77.10143 755 ft 36 kts 105°
2026-05-05 15:58 28.56283 77.10405 757 ft 33 kts 105°
2026-05-05 15:58 28.56227 77.10645 763 ft 30 kts 104°
2026-05-05 15:58 28.56149 77.10848 766 ft 26 kts 123°
2026-05-05 15:59 28.56072 77.10944 767 ft 0 kts 134°
2026-05-05 16:01 28.56070 77.10947 767 ft 2 kts 135°
2026-05-05 16:01 28.56044 77.10973 767 ft 8 kts 144°
2026-05-05 16:01 28.55982 77.10960 767 ft 13 kts 235°
2026-05-05 16:01 28.55992 77.10852 766 ft 15 kts 285°
2026-05-05 16:02 28.56020 77.10728 765 ft 17 kts 285°
2026-05-05 16:02 28.56051 77.10593 763 ft 19 kts 285°
2026-05-05 16:02 28.56085 77.10441 759 ft 21 kts 285°
2026-05-05 16:02 28.56124 77.10270 755 ft 24 kts 287°
2026-05-05 16:03 28.56170 77.10074 755 ft 28 kts 285°
2026-05-05 16:03 28.56219 77.09860 750 ft 27 kts 284°
2026-05-05 16:03 28.56267 77.09654 745 ft 27 kts 284°
2026-05-05 16:03 28.56316 77.09449 745 ft 27 kts 286°
2026-05-05 16:04 28.56361 77.09241 742 ft 27 kts 285°
2026-05-05 16:04 28.56411 77.09029 738 ft 28 kts 286°
2026-05-05 16:04 28.56463 77.08809 735 ft 29 kts 285°
2026-05-05 16:04 28.56517 77.08580 732 ft 31 kts 285°
2026-05-05 16:05 28.56564 77.08360 729 ft 27 kts 284°
2026-05-05 16:05 28.56571 77.08248 730 ft 9 kts 244°
2026-05-05 16:05 28.56536 77.08175 731 ft 12 kts 242°
2026-05-05 16:05 28.56489 77.08076 729 ft 16 kts 240°
2026-05-05 16:06 28.56403 77.07996 731 ft 18 kts 192°
2026-05-05 16:06 28.56272 77.07960 730 ft 21 kts 194°
2026-05-05 16:06 28.56120 77.07917 730 ft 24 kts 195°
2026-05-05 16:06 28.55952 77.07862 730 ft 26 kts 193°
2026-05-05 16:07 28.55790 77.07815 731 ft 24 kts 195°
2026-05-05 16:07 28.55667 77.07792 732 ft 11 kts 160°
2026-05-05 16:07 28.55645 77.07821 732 ft 12 kts 110°
2026-05-05 16:08 28.55645 77.07824 732 ft 8 kts 109°
2026-05-05 16:08 28.55643 77.07828 732 ft 0 kts 109°
2026-05-05 16:09 28.55644 77.07829 731 ft 0 kts 100°
2026-05-05 16:09 28.55643 77.07841 732 ft 3 kts 93°
2026-05-05 16:09 28.55656 77.07872 731 ft 6 kts 50°
2026-05-05 16:09 28.55701 77.07892 732 ft 9 kts 14°
2026-05-05 16:10 28.55781 77.07916 732 ft 17 kts 15°
2026-05-05 16:10 28.55822 77.07931 732 ft 0 kts 13°
2026-05-05 16:10 28.55824 77.07932 731 ft 4 kts 13°
2026-05-05 16:10 28.55916 77.07955 731 ft 17 kts 14°
2026-05-05 16:11 28.56043 77.07994 730 ft 20 kts 18°
2026-05-05 16:11 28.56336 77.08095 730 ft 0 kts 69°
2026-05-05 16:12 28.56339 77.08110 732 ft 6 kts 80°
2026-05-05 16:12 28.56293 77.08328 730 ft 19 kts 104°
2026-05-05 16:13 28.56195 77.08751 735 ft 15 kts 105°
2026-05-05 16:13 28.56180 77.08816 736 ft 16 kts 105°
2026-05-05 16:15 28.56139 77.08990 739 ft 17 kts 108°
2026-05-05 16:15 28.55957 77.08979 739 ft 13 kts 264°
2026-05-05 16:16 28.55966 77.08904 737 ft 0 kts 279°